User: anonymous   Login
Location: Unspecified
(0.0000°N, 0.0000°E)
Time: 00:15:48
(UTC+00:00)
Language:

APRIZESAT 7 - Orbit

View from above orbital plane
View from above orbital plane
View from above satellite
View from above satellite

Ground track
Ground track

The orbit data is extracted from the following two-line orbital elements,

1 39416U 13066A   17326.17597566  .00000167  00000-0  26080-4 0  9998
2 39416  97.6133   9.2265 0042809  93.6618 266.9494 14.83753685216654
Epoch (UTC): 22 November 2017 04:13:24
Eccentricity: 0.0042809
inclination: 97.6133°
perigee height: 587 km
apogee height: 647 km
right ascension of ascending node: 9.2265°
argument of perigee: 93.6618°
revolutions per day: 14.83753685
mean anomaly at epoch: 266.9494°
orbit number at epoch: 21665

The dashed part of the orbit path shows where the satellite is in the earth's shadow,  

DLR